Location: *
(32.8140°S, 174.6161°E)
Time: 06:03:50
(UTC+00:00)

Cosmos 1447 Rocket - Pass Details

Date: 10 December 2019
Orbit: 953 x 997 km, 82.9° (Epoch: 24 January)

Event Time Altitude Azimuth Distance (km) Brightness Sun altitude
Exits shadow 14:46:30 38° 7° (N) 1,430 5.0 -23.5°
Maximum altitude 14:49:02 78° 86° (E) 986 4.5 -23.2°
Drops below altitude 10° 14:55:13 10° 171° (S) 2,708 7.6 -22.3°
Sets 14:57:44 0° 172° (S) 3,661 8.4 -22.0°
